This is the latest recevied weather packets stored in our database for station/object WX7FGZ-3. If no packets are shown the sender has not sent any weather packets the latest 10 day(s).
| Time | Temp. | Humidity | Pressure | Rain* | Wind** | Luminosity | Snow |
|---|---|---|---|---|---|---|---|
| 1777835289 | 20.56° C | 23% | 1012.3 hPa | 0 mm | - | - | - |
| 1777834993 | 17.78° C | 27% | 1013.3 hPa | 0 mm | - | - | - |
| 1777832886 | 17.78° C | 27% | 1013.3 hPa | 0 mm | - | - | - |
| 1777832550 | 19.44° C | 25% | 1013.5 hPa | 0 mm | - | - | - |
| 1777831685 | 19.44° C | 25% | 1013.5 hPa | 0 mm | - | - | - |
| 1777831191 | 18.89° C | 26% | 1013.7 hPa | 0 mm | - | - | - |
| 1777831182 | 18.33° C | 27% | 1013.8 hPa | 0 mm | - | - | - |
| 1777831085 | 18.89° C | 26% | 1013.7 hPa | 0 mm | - | - | - |
| 1777830784 | 18.33° C | 27% | 1013.8 hPa | 0 mm | - | - | - |
| 1777830726 | 18.33° C | 27% | 1013.9 hPa | 0 mm | - | - | - |
| 1777830485 | 18.33° C | 28% | 1013.7 hPa | 0 mm | - | - | - |
| 1777830184 | 18.33° C | 27% | 1013.9 hPa | 0 mm | - | - | - |
| 1777830047 | 16.67° C | 30% | 1013.9 hPa | 0 mm | - | - | - |
| 1777830036 | 17.22° C | 28% | 1013.9 hPa | 0 mm | - | - | - |
| 1777829884 | 17.78° C | 30% | 1013.8 hPa | 0 mm | - | - | - |
| 1777829583 | 16.67° C | 30% | 1013.9 hPa | 0 mm | - | - | - |
| 1777829283 | 17.22° C | 28% | 1013.9 hPa | 0 mm | - | - | - |
| 1777828983 | 17.78° C | 28% | 1014 hPa | 0 mm | - | - | - |
| 1777828785 | 17.22° C | 29% | 1014.2 hPa | 0 mm | - | - | - |
| 1777828775 | 16.67° C | 28% | 1014.2 hPa | 0 mm | - | - | - |
| 1777828683 | 17.78° C | 29% | 1014 hPa | 0 mm | - | - | - |
| 1777828383 | 17.22° C | 29% | 1014.2 hPa | 0 mm | - | - | - |
| 1777828082 | 16.67° C | 28% | 1014.2 hPa | 0 mm | - | - | - |
| 1777827482 | 16.67° C | 31% | 1014.3 hPa | 0 mm | - | - | - |
| 1777826881 | 17.78° C | 27% | 1014.3 hPa | 0 mm | - | - | - |
* Rain latest hour (hover to see other rain measurements)
** Current wind speed in m/s (hover to see current wind gust speed)